Weather History for KMOT - October, 2011

Change the Weather History Date:

Monday, October 3, 2011

  Actual Average Record
Temperature  
Mean Temperature 63 °F 50 °F  
Max Temperature 75 °F 62 °F 87 °F (1938)
Min Temperature 50 °F 39 °F 19 °F (1989)
Degree Days  
Heating Degree Days 2 15  
Month to date heating degree days 2 43  
Since 1 July heating degree days 174 363  
Cooling Degree Days 0 0  
Month to date cooling degree days 2 0  
Year to date cooling degree days 501 444  
Growing Degree Days 12 (Base 50)    
Moisture  
Dew Point 49 °F    
Average Humidity 66    
Maximum Humidity 86    
Minimum Humidity 46    
Precipitation  
Precipitation 0.00 in 0.04 in 1.24 in (2012)
Month to date precipitation 0.00 0.13  
Year to date precipitation 21.08 15.03  
Sea Level Pressure  
Sea Level Pressure 29.99 in    
Wind  
Wind Speed 7 mph (North)    
Max Wind Speed 15 mph    
Max Gust Speed 22 mph    
Visibility 10 miles    
Events      
T = Trace of Precipitation, MM = Missing Value Source: NWS Daily Summary

Daily Weather History Graph

Daily Weather History Graph

Search for Another Location

Airport or City:

Trip Planner

Search our weather history database for the weather conditions in past years. The results will help you decide how hot, cold, wet, or windy it might be!

Date:

Astronomy

Oct. 03, 2011 Rise Set
Actual Time 7:46 AM CDT 7:20 PM CDT
Civil Twilight 7:15 AM CDT 7:51 PM CDT
Nautical Twilight 6:39 AM CDT 8:27 PM CDT
Astronomical Twilight 6:02 AM CDT 9:04 PM CDT
Moon 3:11 PM CDT (10/3) No Moon Set
Length of Visible Light 12h 35m
Length of Day
11h 33m
Waxing Crescent, 45% of the Moon is Illuminated
Oct 3
Waxing Crescent
Oct 3
First Quarter
Oct 11
Full
Oct 19
Last Quarter
Oct 26
New

Hourly Weather History & Observations

Time (CDT) Temp. Dew Point Humidity Pressure Visibility Wind Dir Wind Speed Gust Speed Precip Events Conditions
12:54 AM 62.1 °F 48.0 °F 60% 29.89 in 10.0 mi Calm Calm - N/A   Clear
1:54 AM 57.9 °F 48.9 °F 72% 29.88 in 10.0 mi Calm Calm - N/A   Clear
2:54 AM 55.0 °F 48.9 °F 80% 29.90 in 10.0 mi Calm Calm - N/A   Clear
3:54 AM 54.0 °F 48.0 °F 80% 29.91 in 10.0 mi WNW 6.9 mph - N/A   Clear
4:54 AM 53.1 °F 46.9 °F 80% 29.91 in 10.0 mi West 4.6 mph - N/A   Clear
5:54 AM 53.1 °F 46.9 °F 80% 29.95 in 10.0 mi WNW 12.7 mph - N/A   Clear
6:54 AM 53.1 °F 46.9 °F 80% 29.97 in 10.0 mi NNW 12.7 mph - N/A   Clear
7:54 AM 52.0 °F 46.9 °F 83% 29.99 in 10.0 mi NNW 9.2 mph - N/A   Clear
8:54 AM 55.0 °F 48.0 °F 77% 30.00 in 10.0 mi NW 9.2 mph - N/A   Clear
9:54 AM 57.0 °F 48.0 °F 72% 30.02 in 10.0 mi NNW 11.5 mph - N/A   Clear
10:54 AM 61.0 °F 48.9 °F 64% 30.03 in 10.0 mi North 9.2 mph - N/A   Clear
11:54 AM 63.0 °F 48.9 °F 60% 30.03 in 10.0 mi NNW 8.1 mph - N/A   Clear
12:54 PM 68.0 °F 48.2 °F 49% 30.02 in 10.0 mi NNW 11.5 mph - N/A   Clear
1:54 PM 71.1 °F 50.0 °F 47% 30.01 in 10.0 mi North 10.4 mph 21.9 mph N/A   Clear
2:54 PM 73.4 °F 51.8 °F 47% 30.00 in 10.0 mi NE 6.9 mph - N/A   Clear
3:54 PM 73.9 °F 51.1 °F 45% 30.01 in 10.0 mi NNE 9.2 mph - N/A   Clear
4:54 PM 73.9 °F 52.0 °F 46% 30.01 in 10.0 mi NE 8.1 mph - N/A   Clear
5:54 PM 70.0 °F 50.0 °F 49% 30.01 in 10.0 mi East 8.1 mph - N/A   Clear
6:54 PM 64.9 °F 51.1 °F 61% 30.02 in 10.0 mi ENE 4.6 mph - N/A   Clear
7:54 PM 57.9 °F 48.9 °F 72% 30.04 in 9.0 mi NE 4.6 mph - N/A   Clear
8:54 PM 57.0 °F 48.9 °F 74% 30.04 in 10.0 mi ENE 4.6 mph - N/A   Clear
9:54 PM 55.9 °F 48.9 °F 77% 30.04 in 10.0 mi NE 5.8 mph - N/A   Clear
10:54 PM 54.0 °F 48.0 °F 80% 30.04 in 10.0 mi NE 3.5 mph - N/A   Clear
11:54 PM 50.0 °F 46.9 °F 89% 30.04 in 10.0 mi NNE 3.5 mph - N/A   Clear